[[{"header":{"parameterUnit":"m.s-1","parameterCategory":1,"la1":30.2991,"la2":30.254,"lo1":-89.0895,"lo2":-89.0444,"dx":0.0017,"dy":0.0017,"nx":28,"ny":28,"refTime":"2022-12-12T03:00:00:Z","depth":0,"parameterNumber":2,"parameterNumberName":"U-component_of_WINDS"},"data":[0,0,0,0,0,0,0,0,0,0,0,0,0,0,0,0,0,0,0,0,0,0,0,0,0,0,0,0,0,0,0,0,0,0,0,0,0,0,0,0,0,0,0,0,0,0,0,0,0,0,0,0,0,0,0,0,0,0,-4.7834,-4.7835,0,-4.7949,-4.7951,-4.7952,-4.7966,-4.7965,-4.7964,-4.7963,-4.8078,-4.8082,-4.8086,0,0,0,0,0,0,0,0,0,0,0,0,0,-4.7621,-4.7625,-4.7833,-4.7835,-4.7836,-4.7949,-4.7951,-4.7952,-4.7966,-4.7965,-4.7963,-4.7962,-4.8077,-4.8082,-4.8086,0,0,0,0,0,0,0,0,0,0,0,0,0,-4.7723,-4.7626,-4.7833,-4.7857,-4.786,-4.7949,-4.7951,-4.7953,-4.7966,-4.7965,-4.7963,-4.7962,-4.8075,-4.8081,-4.8087,-4.8159,0,0,-4.8106,-4.8109,0,0,0,0,0,0,0,0,-4.7717,-4.773,-4.7852,-4.7855,-4.7859,-4.7942,-4.7918,-4.8022,-4.7967,-4.7926,-4.7963,-4.7961,-4.8034,-4.8043,-4.8069,-4.8165,-4.8169,-4.8107,-4.811,-4.8113,-4.8115,0,0,0,0,0,0,0,-4.771,-4.7725,-4.7879,-4.7854,-4.7858,-4.7861,-4.7873,-4.7938,-4.7988,-4.7929,-4.7931,-4.7944,-4.8035,-4.8063,-4.8071,-4.8171,-4.8106,-4.8112,-4.8116,-4.8118,-4.8331,-4.8332,0,0,0,0,0,0,-4.7699,-4.7719,-4.7876,-4.7883,-4.7783,-4.7866,-4.788,-4.7917,-4.7987,-4.7996,-4.7946,-4.7945,-4.8053,-4.8064,-4.8075,-4.8163,-4.8113,-4.8119,-4.8122,-4.8329,-4.8331,-4.8333,0,0,0,0,0,0,-4.7694,-4.7713,-4.7871,-4.7802,-4.7822,-4.7871,-4.7913,-4.792,-4.7947,-4.8,-4.8008,-4.7965,-4.8052,-4.8067,-4.8138,-4.8167,-4.8122,-4.8127,-4.8326,-4.8329,-4.8332,-4.8339,0,0,0,0,0,0,-4.7688,-4.7711,-4.7739,-4.7802,-4.7826,-4.7932,-4.7915,-4.7923,-4.7958,-4.7958,-4.8019,-4.8028,-4.8052,-4.8129,-4.8144,-4.8175,-4.8132,-4.8324,-4.8328,-4.8331,-4.8336,-4.8341,-4.8346,0,0,0,0,0,-4.768,-4.7736,-4.7741,-4.7759,-4.7862,-4.7934,-4.7947,-4.7974,-4.7961,-4.7989,-4.8023,-4.8026,-4.8162,-4.8136,-4.8154,-4.8186,-4.8322,-4.8327,-4.8331,-4.8334,-4.834,-4.8346,0,0,0,0,0,0,-4.7674,-4.7745,-4.775,-4.7828,-4.7875,-4.7936,-4.7973,-4.7981,-4.8032,-4.8029,-4.806,-4.8074,-4.8143,-4.8172,-4.8142,-4.8259,-4.8241,-4.8249,-4.8237,-4.8244,-4.8249,-4.8239,-4.8137,0,0,0,0,0,-4.7682,-4.7735,-4.7794,-4.7857,-4.788,-4.7923,-4.7955,-4.7972,-4.8021,-4.8041,-4.808,-4.8126,-4.8179,-4.8214,-4.8266,-4.8342,-4.8354,-4.8373,-4.8378,-4.8382,-4.8387,-4.8428,-4.8436,-4.8347,-4.8347,-4.8347,0,0,-4.7698,-4.7743,-4.7775,-4.7857,-4.7895,-4.7948,-4.7939,-4.7996,-4.8035,-4.8049,-4.8118,-4.8149,-4.8203,-4.8276,-4.8311,-4.8303,-4.8415,-4.8387,-4.839,-4.8393,-4.8433,-4.8441,-4.8449,-4.835,-4.835,-4.8349,0,0,-4.7754,-4.7795,-4.7851,-4.789,-4.7949,-4.7977,-4.799,-4.8051,-4.8071,-4.8142,-4.8153,-4.82,-4.8292,-4.8329,-4.8361,-4.8432,-4.8437,-4.8449,-4.8473,-4.8513,-4.852,-4.8526,-4.8549,-4.8558,-4.8455,-4.8455,-4.8455,0,-4.7766,-4.7848,-4.7879,-4.7935,-4.797,-4.7987,-4.8043,-4.8079,-4.8151,-4.8174,-4.8165,-4.828,-4.8318,-4.84,-4.8417,-4.8443,-4.8458,-4.844,-4.8517,-4.8523,-4.8529,-4.8552,-4.8561,-4.8456,-4.8455,-4.8455,-4.8455,0,-4.7859,-4.7916,-4.7954,-4.8024,-4.8064,-4.812,-4.8158,-4.8194,-4.8209,-4.8237,-4.8308,-4.8355,-4.8415,-4.8437,-4.8451,-4.8521,-4.8514,-4.8511,-4.8492,-4.8538,-4.856,-4.8569,-4.8457,-4.8456,-4.8456,-4.8456,0,0,-4.7912,-4.7999,-4.8012,-4.8044,-4.8111,-4.8154,-4.8211,-4.8272,-4.8301,-4.8351,-4.8398,-4.8476,-4.8473,-4.8508,-4.8527,-4.8562,-4.8613,-4.8555,-4.8556,-4.8561,-4.8691,-4.869,-4.87,-4.8618,-4.862,-4.8622,-4.8685,0,-4.7973,-4.8076,-4.8105,-4.8191,-4.8242,-4.826,-4.8309,-4.8354,-4.8383,-4.843,-4.8462,-4.8515,-4.8509,-4.853,-4.8566,-4.86,-4.8639,-4.8596,-4.866,-4.8662,-4.8643,-4.8712,-4.8712,-4.877,-4.8694,-4.8696,-4.8697,0,-4.8059,-4.8111,-4.8201,-4.8261,-4.8284,-4.8327,-4.8385,-4.8431,-4.8483,-4.8501,-4.8541,-4.8557,-4.8616,-4.8597,-4.8677,-4.8646,-4.8675,-4.8695,-4.8698,-4.8703,-4.868,-4.8715,-4.8789,-4.8797,-4.8711,-4.871,-4.8709,0,-4.8085,-4.8178,-4.8244,-4.8271,-4.8342,-4.8372,-4.8403,-4.8454,-4.8488,-4.8539,-4.8561,-4.8618,-4.8648,-4.8691,-4.8722,-4.8705,-4.8799,-4.8782,-4.8814,-4.8813,-4.883,-4.8828,-4.8906,-4.8853,-4.8853,-4.8853,-4.8852,0,-4.8149,-4.8203,-4.8256,-4.8296,-4.8357,-4.8391,-4.845,-4.8482,-4.8527,-4.8573,-4.8592,-4.8634,-4.8673,-4.8721,-4.8745,-4.8807,-4.8821,-4.8836,-4.8841,-4.8833,-4.883,-4.8849,-4.8845,-4.8855,-4.8854,-4.8854,-4.8854,0,-4.8187,-4.8225,-4.8298,-4.836,-4.8377,-4.8419,-4.8472,-4.8511,-4.8542,-4.8599,-4.8615,-4.8662,-4.8718,-4.8754,-4.8826,-4.8842,-4.8909,-4.8914,-4.8891,-4.8893,-4.8922,-4.8917,-4.9013,-4.9026,-4.8966,-4.8967,-4.8967,0,-4.8224,-4.8266,-4.8333,-4.8366,-4.8397,-4.845,-4.8485,-4.8521,-4.8557,-4.8619,-4.865,-4.8709,-4.8757,-4.8847,-4.8886,-4.8941,-4.8946,-4.8976,-4.8954,-4.8944,-4.8944,-4.894,-4.8943,-4.8978,-4.8979,-4.8979,-4.898,0,-4.8284,-4.8301,-4.8352,-4.8411,-4.8453,-4.85,-4.8547,-4.8572,-4.8615,-4.8655,-4.8713,-4.8751,-4.8825,-4.8882,-4.8941,-4.8971,-4.8982,-4.8987,-4.8996,-4.8986,-4.897,-4.8977,-4.8898,-4.8984,-4.8983,-4.8983,-4.8983,-4.8982,-4.8321,-4.8359,-4.8412,-4.8468,-4.8508,-4.8551,-4.8591,-4.8627,-4.8677,-4.874,-4.8758,-4.8819,-4.8869,-4.895,-4.8982,-4.9029,-4.9025,-4.9039,-4.9043,-4.9045,-4.9044,-4.8966,-4.904,-4.904,-4.904,-4.904,-4.904,0,-4.838,-4.8416,-4.8468,-4.8533,-4.8577,-4.8586,-4.8638,-4.8674,-4.8727,-4.8774,-4.8822,-4.8889,-4.8944,-4.8989,-4.9046,-4.9075,-4.9082,-4.9089,-4.9086,-4.9092,-4.9046,-4.9031,-4.9083,-4.9083,-4.9083,-4.9083,-4.9083,-4.9083,-4.8416,-4.848,-4.8504,-4.8587,-4.8622,-4.8683,-4.8712,-4.8752,-4.8789,-4.8863,-4.891,-4.8939,-4.8985,-4.9046,-4.9097,-4.9108,-4.9127,-4.9133,-4.9145,-4.91,-4.9096,-4.9091,-4.9077,-4.9137,-4.9138,-4.9187,-4.9188,-4.9188]},{"header":{"parameterUnit":"m.s-1","parameterCategory":1,"la1":30.2991,"la2":30.254,"lo1":-89.0895,"lo2":-89.0444,"dx":0.0017,"dy":0.0017,"nx":28,"ny":28,"refTime":"2022-12-12T03:00:00:Z","depth":0,"parameterNumber":3,"parameterNumberName":"V-component_of_WINDS"},"data":[0,0,0,0,0,0,0,0,0,0,0,0,0,0,0,0,0,0,0,0,0,0,0,0,0,0,0,0,0,0,0,0,0,0,0,0,0,0,0,0,0,0,0,0,0,0,0,0,0,0,0,0,0,0,0,0,0,0,3.0415,3.0415,0,3.0457,3.0458,3.0458,3.0445,3.0444,3.0443,3.0442,3.0487,3.0489,3.0491,0,0,0,0,0,0,0,0,0,0,0,0,0,3.0325,3.0327,3.0415,3.0415,3.0416,3.0457,3.0458,3.0459,3.0445,3.0444,3.0443,3.0442,3.0486,3.0489,3.0491,0,0,0,0,0,0,0,0,0,0,0,0,0,3.0366,3.0328,3.0415,3.0414,3.0415,3.0457,3.0458,3.0459,3.0445,3.0444,3.0443,3.0441,3.0486,3.0489,3.0492,3.0538,0,0,3.0501,3.0502,0,0,0,0,0,0,0,0,3.0364,3.0369,3.0414,3.0414,3.0415,3.0444,3.0443,3.0485,3.0446,3.0434,3.0442,3.0441,3.0474,3.0478,3.0489,3.054,3.0542,3.0501,3.0503,3.0504,3.0505,0,0,0,0,0,0,0,3.0361,3.0367,3.0432,3.0414,3.0415,3.0413,3.0417,3.0451,3.0461,3.0435,3.0434,3.0439,3.0474,3.0486,3.049,3.0542,3.0501,3.0504,3.0506,3.0507,3.0638,3.064,0,0,0,0,0,0,3.0357,3.0365,3.043,3.0433,3.0385,3.0416,3.042,3.0436,3.0461,3.0463,3.044,3.0438,3.0482,3.0486,3.0491,3.0551,3.0504,3.0507,3.0509,3.0637,3.0639,3.0641,0,0,0,0,0,0,3.0355,3.0363,3.0429,3.0399,3.0407,3.0419,3.0437,3.0438,3.045,3.0465,3.0467,3.045,3.0481,3.0487,3.0527,3.0552,3.0509,3.0511,3.0635,3.0637,3.064,3.0667,0,0,0,0,0,0,3.0353,3.0363,3.0379,3.0399,3.0409,3.0463,3.0438,3.044,3.0455,3.0453,3.0475,3.0477,3.048,3.0523,3.053,3.0555,3.0514,3.0633,3.0636,3.0639,3.0664,3.067,3.0676,0,0,0,0,0,3.035,3.0385,3.038,3.0388,3.043,3.0464,3.047,3.0472,3.0457,3.0475,3.0485,3.0476,3.0548,3.0527,3.0535,3.0562,3.0631,3.0635,3.0639,3.0662,3.0669,3.0675,0,0,0,0,0,0,3.0367,3.0387,3.0382,3.0424,3.0443,3.0462,3.0484,3.0479,3.0502,3.0499,3.0502,3.0507,3.0549,3.0559,3.0536,3.061,3.0587,3.0593,3.0602,3.0609,3.0615,3.0613,3.0516,0,0,0,0,0,3.0375,3.0401,3.0418,3.0453,3.0463,3.0472,3.0487,3.0488,3.0507,3.0515,3.0527,3.0547,3.0574,3.0592,3.0617,3.0665,3.0672,3.0688,3.0693,3.0698,3.0703,3.0734,3.0742,3.0653,3.0653,3.0653,0,0,3.0394,3.0408,3.0424,3.0457,3.0471,3.05,3.0479,3.0508,3.053,3.0519,3.0559,3.0569,3.0591,3.0637,3.0657,3.0646,3.073,3.0703,3.0706,3.0709,3.0738,3.0747,3.0754,3.0655,3.0655,3.0654,0,0,3.0442,3.0454,3.0487,3.0502,3.0524,3.0531,3.0539,3.0559,3.0566,3.0606,3.0599,3.0625,3.0671,3.0689,3.0703,3.0762,3.0756,3.077,3.08,3.083,3.0837,3.0843,3.0868,3.0876,3.0775,3.0775,3.0775,0,3.0462,3.0503,3.0504,3.0536,3.0553,3.0544,3.058,3.0594,3.0624,3.0636,3.0623,3.0683,3.0697,3.0748,3.0763,3.0774,3.0786,3.0768,3.0836,3.0842,3.0848,3.0871,3.088,3.0777,3.0776,3.0776,3.0776,0,3.0529,3.0558,3.0582,3.0612,3.0631,3.0664,3.0672,3.0691,3.069,3.0699,3.0742,3.0758,3.0789,3.0801,3.08,3.0853,3.0847,3.0834,3.0812,3.0858,3.088,3.0889,3.0779,3.0779,3.0778,3.0778,0,0,3.0589,3.062,3.0629,3.0645,3.067,3.0693,3.0727,3.0757,3.0775,3.0796,3.0827,3.0867,3.0858,3.0875,3.0876,3.0901,3.0951,3.0887,3.0887,3.0901,3.1016,3.1027,3.1037,3.0947,3.0949,3.095,3.1015,0,3.0641,3.0701,3.0704,3.0759,3.0788,3.0782,3.0812,3.0832,3.0841,3.0868,3.0878,3.0909,3.0892,3.0903,3.0927,3.094,3.0975,3.0935,3.0978,3.098,3.0976,3.1048,3.1059,3.1119,3.1023,3.1025,3.1026,0,3.0711,3.0736,3.0793,3.0818,3.083,3.0857,3.0887,3.0912,3.0936,3.0941,3.0961,3.096,3.0997,3.0973,3.1026,3.0999,3.1017,3.1026,3.1029,3.1035,3.1007,3.1059,3.1138,3.1149,3.1039,3.1038,3.1037,0,3.0753,3.0801,3.0842,3.0855,3.0883,3.0903,3.0916,3.0938,3.0957,3.0984,3.0997,3.1027,3.1045,3.1069,3.1077,3.1057,3.1132,3.1106,3.114,3.114,3.1157,3.1156,3.1243,3.1164,3.1164,3.1163,3.1163,0,3.0814,3.085,3.0862,3.0888,3.093,3.0934,3.0976,3.0988,3.1008,3.1038,3.1034,3.1062,3.1069,3.11,3.1106,3.1152,3.1159,3.1166,3.1168,3.1168,3.1168,3.1182,3.1179,3.1166,3.1165,3.1165,3.1164,0,3.0869,3.0878,3.0924,3.0947,3.0954,3.0985,3.1006,3.1032,3.1041,3.108,3.1089,3.1104,3.114,3.115,3.1192,3.1197,3.1252,3.1248,3.1244,3.1245,3.1279,3.1277,3.1381,3.1396,3.1303,3.1304,3.1305,0,3.0908,3.0936,3.0964,3.0984,3.0998,3.1029,3.1049,3.1055,3.1077,3.1108,3.1131,3.1166,3.1195,3.1253,3.1269,3.1303,3.1302,3.1336,3.1307,3.1308,3.1307,3.1307,3.1311,3.1342,3.1343,3.1344,3.1345,0,3.0978,3.0982,3.1011,3.1043,3.1067,3.1092,3.1116,3.1133,3.1143,3.1167,3.1204,3.1227,3.1272,3.1308,3.1343,3.1358,3.1355,3.1353,3.1364,3.1366,3.1364,3.1369,3.1263,3.1351,3.1351,3.135,3.135,3.135,3.1029,3.1055,3.108,3.1113,3.1132,3.1156,3.1183,3.1196,3.1227,3.1264,3.1266,3.1307,3.1333,3.1379,3.1396,3.143,3.142,3.1434,3.1438,3.1442,3.1447,3.1356,3.1436,3.1436,3.1436,3.1435,3.1435,0,3.1102,3.1118,3.1149,3.1184,3.1211,3.1204,3.1231,3.1255,3.1291,3.1315,3.1344,3.1389,3.1425,3.1445,3.1481,3.1505,3.1505,3.1515,3.1515,3.1519,3.1452,3.1441,3.1515,3.1515,3.1515,3.1515,3.1515,3.1515,3.1144,3.1189,3.1197,3.1253,3.1269,3.1309,3.1326,3.1349,3.1368,3.1418,3.1448,3.1461,3.1484,3.1523,3.1557,3.1562,3.1577,3.1589,3.1594,3.1531,3.1523,3.1516,3.1506,3.1592,3.1592,3.1659,3.1659,3.166]}]]